Theta_e
354 355 353 354 354 354 354 355 355 356 356 357 357 355 354 353 354 353 352 351 348 346 347 346 344 344 347 346 347 346 348 347 347 347 349 350 352 358 360 359 358 357 357 358 358 357 357 357 356 356 356 356 355 355 355 355 355 355 355 355 354 354 354 354 354 354 354 354 353 353 352 353 353 353 353 353 353 353 353 353 352 352 353 353 353
354 354 354 354 354 354 356 355 355 355 357 356 358 355 354 353 352 352 351 349 349 348 349 346 345 346 346 347 347 347 348 347 347 346 347 351 353 359 360 359 359 358 358 358 357 357 357 357 356 356 356 356 356 355 355 355 354 354 355 355 355 354 354 354 353 353 353 354 353 354 353 353 353 353 353 353 353 354 354 354 353 353 353 353 353
354 354 354 354 354 355 354 355 355 356 357 357 358 357 355 353 354 352 352 350 350 350 349 346 346 346 348 347 347 347 348 348 348 349 350 351 351 354 359 360 359 358 358 358 357 356 357 357 356 356 356 356 356 356 355 355 355 355 355 356 355 355 354 354 353 353 353 353 353 354 353 354 353 353 353 353 354 354 354 354 354 353 354 353 353
354 354 354 354 353 354 355 355 355 356 356 356 355 358 356 353 353 351 350 349 349 348 349 347 346 346 347 346 346 347 347 347 348 350 350 350 351 352 353 357 359 358 358 358 358 357 357 356 356 356 355 355 355 355 355 355 355 355 355 355 355 355 354 354 354 354 354 353 353 354 354 354 354 354 354 354 354 354 354 354 354 354 354 354 354
354 354 360 354 354 354 354 356 355 356 356 355 355 355 355 353 352 353 349 348 347 346 350 346 346 345 346 345 345 346 347 346 347 348 349 350 351 351 350 356 355 359 359 358 358 358 357 357 356 356 356 356 355 355 355 355 355 355 355 355 355 355 354 354 354 354 354 354 354 354 354 354 354 354 354 354 354 354 354 354 354 354 354 353 354
354 354 355 355 355 355 353 352 351 356 356 354 353 353 352 350 350 353 357 353 347 346 348 345 345 345 346 344 343 345 346 346 346 348 349 352 352 349 349 351 353 353 356 359 358 358 358 358 357 356 356 356 356 355 355 355 355 355 355 355 355 355 355 354 354 355 355 354 354 355 355 355 355 355 355 354 353 354 354 353 353 353 353 354 354
356 355 355 355 354 354 354 354 355 357 356 355 353 352 350 350 353 351 351 353 348 347 347 346 344 344 345 345 343 345 347 346 347 348 349 351 352 352 351 351 350 351 355 353 360 358 358 358 358 357 357 356 356 355 356 356 355 355 355 355 354 355 355 354 354 355 355 355 355 355 355 355 355 355 354 354 354 353 353 353 353 353 353 353 353
357 356 355 355 353 354 354 355 357 358 357 355 353 351 351 351 355 352 345 341 342 340 347 345 344 344 345 344 343 349 345 346 347 348 351 352 353 352 351 351 350 350 357 350 351 357 358 358 358 357 357 357 356 356 357 357 355 355 355 354 354 353 354 354 354 354 354 354 354 354 354 354 353 354 354 354 353 353 353 353 353 353 353 353 353
358 357 356 356 355 355 354 354 357 357 355 354 353 355 355 355 349 353 339 331 333 332 340 345 343 344 344 344 342 347 345 346 347 349 353 351 351 351 351 351 353 360 354 350 349 351 357 358 358 358 358 357 357 357 357 356 355 356 354 354 353 354 353 354 354 354 354 354 354 354 354 354 354 353 354 354 353 352 352 352 352 352 353 353 352
358 357 356 357 357 356 355 356 359 356 355 355 353 352 350 350 346 342 337 328 329 331 333 338 341 342 343 343 341 345 345 345 348 356 350 350 350 351 351 351 353 352 351 351 350 349 351 355 358 359 358 358 357 357 357 357 356 355 356 356 355 355 355 355 353 353 354 354 355 354 354 353 353 353 353 353 353 353 352 352 352 352 352 351 351
357 358 356 358 356 355 355 358 359 355 355 353 351 351 352 347 343 336 340 330 330 332 333 335 337 339 341 342 342 343 344 347 352 350 349 350 351 354 352 350 351 351 350 350 350 350 349 349 349 350 352 358 358 357 356 356 356 356 356 355 356 355 355 355 355 354 354 354 354 354 353 353 353 353 353 352 353 352 352 352 352 352 352 351 351
357 357 357 358 353 353 353 358 358 356 353 350 350 348 348 349 347 337 334 338 336 335 337 338 337 338 341 340 342 343 344 349 349 348 350 349 351 353 351 350 351 350 351 351 353 351 350 349 354 350 351 355 358 357 358 356 356 355 356 356 355 355 355 354 354 354 354 354 353 353 354 353 353 353 353 353 352 352 352 352 352 352 352 351 351
358 356 356 361 353 351 352 357 358 356 353 352 351 350 349 348 348 348 336 333 331 332 336 337 336 332 335 335 337 343 349 350 346 347 349 350 351 351 351 352 350 350 350 351 351 351 351 349 349 349 349 349 352 358 357 356 356 356 356 356 356 355 355 355 355 355 355 355 354 353 352 352 352 352 351 351 352 352 351 351 351 351 351 351 351
358 356 356 357 353 351 352 356 357 356 353 352 350 357 355 351 342 337 338 333 329 333 337 331 329 328 330 329 333 336 344 345 345 347 349 349 351 351 350 351 350 351 350 351 351 351 350 348 348 349 348 348 348 348 349 352 354 357 356 355 356 355 354 354 355 355 354 353 352 352 351 351 351 352 352 351 350 351 351 350 350 351 351 351 350
357 358 355 356 355 353 352 355 356 358 353 348 350 350 349 349 341 337 332 332 336 335 335 329 328 330 330 330 324 328 336 336 340 345 348 349 350 350 351 350 351 350 350 350 350 349 349 349 348 347 347 347 347 347 348 355 352 357 356 355 355 356 354 354 354 354 352 352 352 352 351 351 351 351 351 350 349 350 350 350 351 351 350 349 348
357 357 357 355 355 355 354 354 356 357 354 349 348 347 347 346 341 343 332 329 327 327 340 335 334 332 325 324 322 325 321 328 333 340 347 348 350 349 350 350 349 348 347 348 350 350 350 349 348 348 348 347 347 347 350 345 354 357 356 356 355 356 354 354 353 352 352 351 351 350 350 349 348 349 348 348 349 348 349 349 350 349 348 347 347
357 357 358 355 355 354 354 354 355 356 355 351 348 348 348 348 344 342 331 327 329 324 332 340 335 334 331 325 320 321 321 324 331 332 339 344 347 348 351 350 348 347 348 347 347 349 349 348 347 346 346 347 346 347 348 349 349 353 354 356 356 355 354 353 353 352 351 352 351 349 349 349 349 348 348 347 347 348 347 348 347 345 346 345 344
357 357 358 357 355 354 353 354 355 356 356 353 351 348 347 347 345 344 335 333 328 326 332 342 341 346 335 328 326 321 322 325 329 324 334 343 344 346 346 349 345 347 346 346 346 347 350 349 345 347 347 347 347 347 347 346 350 348 346 349 355 355 355 355 352 352 349 350 351 350 349 349 349 348 347 348 348 346 346 346 345 344 343 341 340
357 357 357 358 356 355 354 354 356 356 358 353 351 351 350 350 348 343 340 343 327 326 332 334 336 339 342 342 344 338 331 329 324 322 324 330 335 340 343 344 344 344 345 346 347 345 347 349 348 346 346 347 346 347 346 346 353 353 356 356 356 355 354 353 350 348 347 348 349 348 348 347 346 346 348 346 346 346 344 344 344 344 342 340 340
357 357 357 357 357 355 354 354 355 356 358 354 353 352 352 350 350 347 342 340 327 329 332 334 334 334 344 340 344 339 333 330 328 329 326 325 328 331 333 337 337 342 345 346 346 346 346 347 348 346 345 345 345 345 345 344 344 347 353 355 356 354 354 351 349 347 347 347 347 346 347 347 347 347 347 346 345 345 344 345 345 343 343 341 340
357 357 357 357 358 356 354 354 355 355 360 355 354 354 352 350 347 342 340 339 329 331 334 334 332 332 333 332 332 331 332 333 333 330 326 323 322 326 330 330 333 336 342 345 345 345 347 347 348 349 348 347 345 344 344 343 344 345 352 354 355 354 354 351 350 348 348 349 349 347 347 347 347 347 347 346 345 345 344 343 344 343 343 342 341
355 356 356 357 357 357 355 355 355 356 359 357 355 353 352 350 349 345 341 340 334 335 335 335 334 332 334 333 332 330 329 329 330 328 327 325 325 325 328 327 326 330 336 339 342 343 345 346 347 349 347 347 345 343 343 344 344 345 348 354 355 355 354 351 349 348 347 348 349 348 348 347 347 348 347 347 346 344 344 344 343 343 343 343 343
355 355 356 357 357 358 357 356 356 359 359 356 356 354 353 351 349 345 342 339 336 334 338 336 335 334 333 332 333 331 330 328 329 329 327 324 323 324 326 328 329 328 330 336 341 341 343 344 345 346 347 346 345 343 343 343 348 350 351 353 355 355 354 352 350 348 347 349 348 348 349 348 348 346 345 346 346 345 343 343 344 343 343 343 342
354 354 355 356 356 357 358 356 357 357 357 357 357 356 354 352 348 345 343 339 337 337 336 335 333 335 333 333 332 333 331 329 330 332 329 326 327 324 326 326 329 328 330 331 336 338 339 341 343 344 346 346 345 344 344 345 346 352 352 353 354 354 353 352 351 349 348 348 348 349 349 348 348 348 346 345 344 344 344 344 344 343 344 345 346
352 353 354 355 356 355 356 356 356 357 358 357 357 357 354 352 348 345 343 340 338 337 335 336 336 337 336 335 333 334 333 332 332 333 330 330 329 324 327 327 325 325 328 329 330 334 336 338 340 341 343 344 344 343 343 343 343 348 354 352 352 354 352 352 351 349 349 348 348 350 349 349 349 349 348 346 345 344 345 345 345 345 346 346 346
352 353 355 355 356 356 357 356 356 357 358 357 357 356 355 352 348 346 343 342 340 337 336 336 336 338 335 335 333 334 334 335 332 333 332 330 326 327 326 326 326 326 325 326 328 330 330 334 337 338 339 341 342 341 341 342 342 348 352 350 348 350 351 350 350 349 349 348 347 349 349 350 349 348 347 347 346 345 345 345 346 347 347 346 346
352 353 355 355 355 356 357 356 356 356 357 358 358 357 356 353 350 346 346 344 343 340 336 335 336 336 335 335 335 334 334 334 334 334 334 334 331 329 329 325 323 323 325 325 325 327 329 329 334 335 335 339 339 339 339 340 344 347 350 350 345 347 349 348 347 347 347 346 347 347 348 348 349 350 350 348 347 346 346 346 346 347 347 347 347
353 353 354 355 355 355 357 357 356 357 357 357 357 356 355 353 350 347 345 348 343 342 340 337 336 335 338 336 335 335 335 335 336 335 334 334 334 331 330 326 324 320 319 322 323 325 328 327 329 333 334 335 337 338 342 343 340 347 350 346 344 341 344 346 345 344 344 344 345 345 346 347 348 349 350 350 350 350 349 349 349 349 349 348 348
352 354 353 354 355 355 356 357 356 357 357 357 357 357 355 354 352 348 345 346 345 343 342 340 338 336 336 338 337 335 335 335 335 337 335 333 333 332 332 330 326 323 318 317 320 322 326 329 327 329 333 334 335 336 338 338 341 343 341 343 343 338 337 339 341 340 341 342 342 342 343 345 345 345 347 348 349 350 350 349 349 349 349 348 348
353 354 353 353 354 359 355 356 356 357 357 357 357 357 355 354 353 351 349 346 346 345 344 342 340 338 337 337 339 338 340 337 335 336 336 334 332 332 331 330 330 327 323 321 321 323 324 327 329 328 330 333 334 334 335 336 343 344 340 338 340 338 335 335 338 339 339 339 339 339 340 341 342 343 342 342 343 345 347 348 348 348 347 347 347
353 353 353 353 354 355 355 355 356 356 357 357 357 356 356 354 353 352 350 347 346 345 345 344 343 340 338 336 336 338 340 340 339 339 339 337 332 331 331 331 330 329 326 323 320 324 327 327 329 331 330 331 334 334 335 335 340 342 339 336 337 340 339 335 336 337 338 337 336 336 336 336 336 337 338 338 339 341 342 343 344 345 346 346 347
352 353 353 353 353 353 355 355 356 356 356 357 357 357 356 355 354 352 351 349 346 345 345 346 346 342 339 337 336 336 337 337 339 339 339 340 337 332 332 332 330 330 328 325 323 325 327 328 328 330 331 332 333 332 333 334 338 347 339 337 336 342 340 335 337 336 336 335 335 335 333 332 332 334 336 337 338 340 342 341 340 341 341 342 344
353 353 353 353 353 354 354 355 355 355 355 356 357 357 356 355 355 354 352 350 348 347 345 344 346 344 342 340 339 338 337 335 336 338 339 339 338 336 334 332 332 331 329 326 325 326 328 329 330 331 333 333 332 333 333 333 334 337 342 339 338 337 337 336 335 337 336 334 333 333 333 332 332 333 335 336 338 339 342 342 340 338 338 338 338
353 353 353 354 353 353 354 354 355 355 355 356 356 357 356 355 354 355 353 350 349 349 347 345 344 345 344 341 341 340 339 337 336 336 337 338 338 337 335 334 332 332 331 329 327 325 326 326 328 331 334 334 332 332 333 333 333 336 336 338 339 338 338 337 336 335 337 335 332 331 332 331 332 332 333 334 336 336 338 338 338 336 336 335 334
352 353 354 354 354 353 353 354 354 355 355 355 356 356 356 355 355 355 355 352 351 350 348 347 346 345 344 343 342 342 341 339 338 337 337 337 337 337 338 336 334 333 332 331 328 327 326 328 327 328 330 332 333 334 334 335 336 335 335 336 338 339 339 338 337 337 338 336 333 332 331 331 331 332 331 333 334 333 334 333 332 332 333 332 331
350 352 354 354 354 353 353 353 353 354 355 355 355 356 356 356 355 355 355 354 353 352 351 350 349 346 345 344 344 343 342 340 339 339 338 337 336 337 337 337 336 335 333 333 332 330 328 327 328 329 330 329 332 334 334 335 335 335 335 336 338 339 338 339 337 337 337 336 335 333 332 331 330 330 330 330 330 329 328 328 328 330 330 330 330
351 351 353 354 354 353 353 352 353 354 355 355 355 355 356 356 356 355 355 354 354 353 352 351 353 349 347 346 346 345 343 341 341 340 340 338 338 337 336 337 337 337 336 334 333 332 329 328 330 328 329 331 332 332 332 333 333 333 334 335 336 337 338 338 339 339 339 336 336 335 334 333 332 331 330 330 329 328 328 327 327 328 328 328 328
353 352 351 353 354 354 354 353 353 354 354 355 355 355 356 356 356 356 356 355 355 354 354 353 352 351 349 348 347 346 344 342 342 342 341 340 339 338 337 337 337 336 335 334 334 333 331 331 331 332 327 330 330 331 333 334 333 332 332 333 334 335 335 335 337 339 340 339 338 337 335 334 333 331 330 330 329 328 328 328 327 327 326 325 323
354 352 352 351 353 354 354 354 354 354 354 355 355 355 355 356 356 355 355 355 355 355 355 354 354 352 352 350 349 347 345 344 344 343 342 341 341 340 339 338 338 336 335 335 334 333 332 332 332 332 332 331 330 330 332 333 334 333 332 331 331 334 335 335 335 337 339 339 339 339 338 337 336 334 327 326 328 329 329 328 327 326 324 322 320
354 354 353 352 352 353 353 354 354 354 354 354 354 355 355 355 355 355 355 355 355 355 355 355 355 354 353 353 351 350 348 347 346 345 344 342 342 340 341 340 338 336 335 335 334 333 333 332 332 332 332 332 328 331 331 329 329 330 332 332 330 331 332 334 335 335 336 337 337 337 338 337 336 334 329 328 329 330 329 330 330 329 326 323 321
354 354 355 354 352 352 352 353 353 354 353 353 354 355 354 355 355 355 355 355 355 354 354 355 355 355 355 354 353 352 352 348 339 339 340 339 344 341 341 341 339 337 336 335 334 333 333 332 332 333 332 331 331 330 329 329 330 331 331 331 332 333 333 332 334 336 337 335 336 336 336 337 337 336 336 334 333 332 331 332 332 333 328 322 322
352 353 354 354 354 353 352 352 353 353 353 354 348 338 341 354 355 356 356 355 355 354 354 354 354 355 355 355 356 350 341 339 337 333 330 330 331 341 344 342 340 339 337 336 335 334 333 332 332 332 331 331 332 332 331 332 333 333 331 330 329 331 327 329 331 333 336 336 334 333 335 338 337 336 335 335 335 339 334 332 331 331 330 326 324
352 352 353 352 353 354 353 352 351 353 354 354 339 332 332 335 351 355 355 355 355 355 355 354 353 354 354 355 355 355 347 340 341 332 330 328 328 327 329 333 336 342 339 337 336 336 334 334 334 333 332 332 333 334 333 333 333 332 332 332 331 330 328 327 326 330 337 337 334 333 334 336 337 334 335 335 335 334 335 333 332 331 328 327 325
352 352 351 351 352 353 353 353 352 352 353 342 334 331 331 330 334 354 355 355 355 355 355 355 355 354 354 354 355 355 355 355 353 349 338 330 327 326 326 326 328 329 333 340 340 337 336 335 334 334 334 333 334 334 334 333 333 333 333 332 331 330 329 328 328 327 332 337 334 333 333 335 336 335 335 335 335 334 334 332 330 330 328 326 326
352 351 351 351 350 351 352 351 352 352 352 338 332 329 329 328 328 338 354 355 354 354 355 355 355 355 355 354 354 355 356 348 351 353 352 350 332 325 324 325 324 325 326 327 330 341 342 338 336 336 336 336 335 335 337 336 336 332 332 331 332 332 331 330 330 330 332 336 334 331 331 334 335 335 334 336 336 335 335 332 331 330 328 326 326
351 351 351 350 350 350 350 350 351 352 352 340 329 326 326 326 327 330 350 354 354 354 354 354 355 354 355 354 353 353 354 354 354 353 353 352 352 349 341 337 337 335 326 323 323 323 330 339 340 339 340 340 338 339 340 338 335 334 333 332 333 332 332 331 333 334 332 338 334 332 329 331 333 334 333 335 336 336 336 333 329 328 328 326 326
351 350 350 350 350 350 350 350 350 350 352 336 327 324 322 322 324 326 346 351 353 353 354 354 354 354 354 355 354 354 354 354 354 352 353 352 352 351 350 349 346 343 343 342 338 335 334 335 338 340 342 343 342 342 342 341 339 338 338 336 336 335 335 336 335 335 333 338 336 332 328 331 333 332 333 334 335 335 336 331 328 328 328 326 325
351 351 350 350 350 350 350 350 349 348 351 333 326 323 321 320 322 335 343 348 350 352 353 353 353 354 354 354 354 354 354 353 344 333 338 352 352 350 349 350 350 350 348 337 334 336 341 341 340 341 342 344 337 344 345 343 342 340 341 340 338 336 333 331 330 333 333 337 337 334 330 329 331 332 333 335 335 334 335 336 330 327 326 325 326
350 349 349 349 350 349 349 349 348 348 349 337 324 320 319 318 321 338 342 346 348 350 351 353 354 354 354 354 354 354 354 353 342 332 329 330 349 350 350 350 350 350 350 351 333 328 328 327 327 328 328 329 329 327 325 326 336 339 340 336 334 336 332 330 330 331 331 334 337 338 334 332 330 332 333 333 334 334 335 334 335 328 325 324 323
349 349 349 349 349 349 348 349 349 348 348 339 322 318 318 317 326 340 342 344 346 348 349 351 353 353 354 348 355 354 353 354 337 330 329 332 344 348 349 349 349 349 350 352 350 341 325 324 325 326 326 327 327 326 326 325 324 325 335 334 337 338 334 333 331 332 334 334 336 340 334 333 332 333 333 330 331 333 335 335 335 333 327 322 320
350 350 350 349 348 348 348 348 345 347 349 342 323 318 316 315 325 341 344 345 345 346 347 349 350 352 353 351 347 344 348 346 333 329 326 330 346 348 349 349 348 348 350 352 351 351 348 340 338 337 337 330 335 335 336 326 325 330 333 335 338 337 335 335 334 333 330 332 336 341 334 333 333 333 333 327 327 332 333 335 335 334 332 330 328
Wind_Speed
3 3 1 3 2 2 2 3 2 3 2 2 2 3 2 2 2 2 2 2 3 2 1 1 1 0 1 1 0 0 0 1 1 2 3 2 2 4 9 9 7 5 7 7 6 6 5 5 5 4 4 5 4 4 4 4 4 3 3 3 2 1 1 1 0 0 1 1 2 2 1 1 2 2 3 3 3 4 4 4 5 6 6 7 7
4 3 3 4 3 2 3 4 4 3 3 4 3 3 4 2 2 2 2 2 2 3 3 2 1 2 1 2 2 1 1 1 1 2 2 2 3 3 9 8 8 8 7 7 7 6 6 5 5 5 5 4 4 4 4 4 3 3 3 3 2 2 1 1 1 1 1 1 2 2 2 2 3 4 4 5 5 5 5 5 4 4 5 6 7
4 4 4 4 3 3 4 3 4 4 4 5 4 4 3 4 3 3 3 3 4 3 3 3 3 2 2 2 2 2 2 2 2 2 3 4 3 2 3 9 8 8 7 7 6 6 6 5 5 5 5 5 5 4 4 4 4 4 4 3 3 3 2 1 1 2 2 2 2 2 2 3 3 4 5 5 6 6 6 6 5 6 6 6 6
4 4 5 4 4 4 4 3 5 4 4 4 4 4 4 2 2 2 2 3 3 3 2 3 3 3 2 2 2 2 3 3 3 2 2 2 3 2 2 2 7 7 7 7 6 6 5 5 5 5 4 4 5 4 5 5 5 4 4 4 3 4 3 2 2 3 3 3 3 3 3 4 4 4 5 6 6 7 7 7 7 7 7 7 7
5 5 4 4 4 4 4 5 5 5 4 4 3 2 4 3 2 2 2 2 2 2 1 2 2 2 3 3 3 3 3 2 3 2 2 2 3 2 2 1 1 6 7 6 7 6 6 5 5 5 5 5 5 5 5 5 5 5 6 6 4 6 3 5 3 4 4 3 4 4 5 5 5 5 6 6 7 7 8 8 8 8 9 9 8
5 5 4 4 4 3 4 5 4 3 3 3 3 2 2 2 2 2 4 3 3 3 3 3 2 1 2 3 3 3 3 3 3 3 2 3 3 2 2 1 1 1 1 6 7 7 7 6 6 5 5 5 5 5 5 5 5 5 6 6 5 5 5 5 5 5 5 5 4 5 5 6 6 7 7 7 7 7 7 7 7 7 7 8 8
5 6 4 4 4 4 5 5 4 3 3 3 3 2 2 2 2 4 4 4 3 2 4 4 3 3 3 3 4 3 2 3 3 3 3 3 3 3 2 2 1 1 1 1 4 6 6 6 6 6 6 6 6 6 6 6 6 6 6 6 6 5 5 5 5 5 4 5 5 5 6 6 7 7 7 8 8 7 5 6 7 7 8 8 8
6 5 5 5 5 5 6 4 3 3 3 2 1 3 3 2 3 3 3 4 3 5 4 5 4 4 3 4 3 3 3 2 3 3 3 3 3 3 3 2 2 2 3 2 1 1 5 6 5 6 6 7 7 7 7 7 6 6 5 6 6 5 7 6 6 6 5 6 6 6 7 7 6 8 7 7 7 7 7 7 8 7 8 8 9
6 5 6 6 6 6 5 4 3 4 4 2 2 2 4 3 2 2 3 3 4 4 4 5 5 4 3 3 2 3 3 3 2 3 3 3 3 3 3 3 2 4 2 2 1 1 2 5 5 6 7 7 7 8 8 7 6 7 4 6 7 5 5 7 6 6 6 7 7 7 8 7 7 7 7 8 7 6 7 7 8 8 8 9 9
5 6 5 5 5 4 2 3 3 4 4 3 3 2 2 2 2 1 3 4 3 5 5 4 4 4 3 3 3 3 3 2 2 2 4 3 3 3 4 3 2 2 3 3 2 2 1 2 5 6 7 7 7 8 8 7 7 8 7 8 8 8 7 7 6 7 7 7 8 7 8 8 7 7 6 7 7 7 7 7 7 7 7 7 8
5 5 5 5 4 4 5 3 3 4 3 3 3 3 1 1 2 1 3 2 3 1 3 5 3 3 3 3 3 3 2 2 2 2 3 3 3 3 2 2 2 2 2 2 2 2 2 2 1 1 1 5 7 7 7 7 7 8 7 8 9 8 8 7 7 7 8 8 6 6 6 6 6 5 5 6 6 5 5 5 5 5 5 6 5
5 5 5 5 5 4 4 3 4 3 3 3 4 3 3 1 0 3 4 4 4 3 4 6 5 4 2 2 0 0 0 1 1 1 2 2 2 2 3 2 3 2 2 2 3 2 2 2 2 2 1 2 5 6 7 6 7 7 7 7 6 6 6 6 5 5 6 6 5 5 4 4 4 4 4 4 3 3 3 3 4 4 4 4 4
5 5 6 5 5 4 4 3 4 4 4 5 4 3 2 2 2 2 2 3 2 2 2 4 8 4 4 3 2 1 0 0 1 2 2 2 2 3 3 3 3 3 3 2 2 2 2 2 2 1 1 1 2 5 6 6 5 5 6 6 6 6 5 5 4 4 5 5 5 3 1 3 4 4 3 3 3 3 3 3 3 3 3 4 4
6 6 5 5 5 4 5 5 4 5 4 3 2 1 2 2 2 3 2 2 1 2 4 4 2 4 5 1 2 3 0 0 1 2 3 2 3 3 3 3 3 3 2 2 3 2 2 2 2 2 2 1 2 1 2 3 3 4 6 6 6 6 5 5 5 4 4 4 3 1 1 1 2 3 3 3 3 3 2 3 2 3 4 4 5
6 6 6 5 5 5 5 5 5 4 3 2 2 2 2 3 3 3 1 2 1 0 2 1 3 2 3 5 0 1 2 1 2 3 3 3 2 3 3 3 4 3 3 3 4 3 2 2 3 3 2 2 2 2 2 2 2 5 6 6 6 6 5 5 4 4 3 3 2 2 0 2 2 2 1 1 1 1 1 1 2 3 4 4 5
7 6 5 6 5 5 5 5 5 4 5 4 3 3 2 2 2 2 4 1 0 1 0 2 4 8 2 1 1 3 0 5 5 3 2 3 3 4 2 3 3 3 2 5 5 3 3 3 3 3 3 2 3 3 3 2 4 7 8 6 6 5 6 5 5 4 4 3 2 2 2 2 2 2 2 1 1 0 1 2 2 3 3 3 4
7 7 6 7 6 5 5 5 5 5 4 4 4 5 4 3 3 3 4 5 2 1 1 1 4 2 8 4 2 0 3 4 1 5 1 3 4 4 3 3 3 4 4 5 3 3 4 3 3 3 3 3 3 3 3 3 2 3 4 7 7 5 6 7 6 5 5 5 4 5 5 4 4 4 3 3 3 2 1 1 1 1 1 1 1
7 7 7 6 6 5 4 5 5 5 5 5 4 3 3 3 4 4 3 2 4 2 0 0 1 1 2 4 7 4 4 1 3 3 1 3 2 2 3 3 3 4 4 4 4 4 3 4 3 4 3 3 3 3 4 4 3 4 5 5 9 7 5 5 5 6 7 6 6 6 6 6 6 5 5 4 4 3 3 2 2 1 1 1 1
7 7 7 6 6 5 5 5 5 5 5 4 4 5 5 4 3 3 4 3 3 3 4 3 1 0 1 0 1 1 7 6 4 2 1 3 2 4 5 3 3 3 5 5 4 3 4 4 4 4 3 3 4 4 4 4 6 6 8 8 10 8 6 6 7 8 8 8 7 7 7 7 7 6 5 5 4 4 3 3 3 3 2 1 0
7 7 7 6 6 6 5 5 5 5 5 5 6 5 4 2 3 4 3 4 5 6 5 3 6 2 0 1 1 2 2 2 5 6 4 3 4 2 2 3 3 4 5 5 5 5 4 5 4 3 3 4 4 4 4 4 4 4 5 10 10 10 9 8 9 10 9 9 9 8 8 7 7 7 6 6 5 4 4 4 4 3 3 2 2
6 7 7 7 7 7 6 5 5 5 5 5 4 4 5 5 4 3 4 3 4 4 5 6 4 4 1 1 2 3 1 1 3 3 3 3 3 3 4 1 1 5 5 5 4 4 5 5 4 4 4 4 4 4 4 4 5 4 6 11 12 11 11 10 10 12 11 11 10 9 8 8 8 7 7 7 6 6 6 5 5 5 4 4 4
6 6 6 6 7 6 6 6 6 5 5 6 5 5 4 4 5 5 4 4 3 3 6 5 5 3 3 4 2 1 1 1 1 2 2 2 5 5 6 6 5 6 4 6 6 6 5 5 5 4 5 5 4 4 4 5 5 4 6 11 12 12 12 11 11 13 13 12 10 10 9 9 9 9 9 8 8 8 8 7 7 7 7 7 6
6 6 7 7 7 6 6 6 5 5 5 5 6 6 6 5 5 4 4 5 5 4 3 3 4 3 3 4 6 6 6 5 5 3 3 2 1 2 3 5 7 5 5 7 6 6 5 5 5 6 5 6 5 5 5 5 6 7 10 10 11 11 12 13 13 13 12 11 11 11 11 11 11 10 10 10 10 10 9 9 9 9 9 9 8
6 6 7 7 7 6 6 6 6 6 6 6 6 6 5 5 4 5 5 4 4 4 4 4 4 4 4 4 4 4 3 3 5 5 6 5 5 4 5 2 3 5 4 2 3 5 5 6 7 6 6 6 6 5 5 5 6 12 9 11 12 12 12 14 14 13 12 11 11 11 12 12 12 12 12 11 11 11 11 11 11 11 11 10 9
7 8 8 9 7 7 7 7 6 6 6 6 5 5 5 5 5 5 5 5 6 6 6 6 6 6 6 5 4 4 5 3 3 4 2 3 5 4 4 2 4 4 5 2 5 4 6 7 7 7 6 6 6 6 6 6 6 9 12 8 14 13 13 13 13 13 13 13 12 12 12 12 11 10 11 12 12 12 12 12 12 12 11 11 10
9 10 9 8 7 8 7 7 6 6 6 6 6 5 5 6 5 6 6 6 5 6 6 5 5 5 3 5 4 6 6 4 3 3 4 4 3 5 3 1 1 4 1 2 1 1 4 6 7 6 6 6 7 6 6 7 7 10 14 9 10 14 14 14 14 14 14 14 14 13 13 13 13 13 13 13 13 13 12 13 13 13 12 12 11
10 9 7 8 8 7 7 7 6 6 6 6 6 6 5 5 5 6 6 6 6 6 5 5 6 5 4 5 6 5 6 5 5 5 5 6 6 5 5 3 2 1 2 2 2 6 7 3 7 7 8 7 7 7 7 7 9 11 13 9 7 12 15 15 15 15 15 15 15 15 14 14 14 15 14 14 13 14 13 13 13 13 12 12 11
7 7 8 8 8 8 7 8 6 6 6 6 6 6 6 6 5 5 6 4 6 6 6 6 6 5 5 4 4 6 5 5 5 6 6 5 5 4 5 4 5 5 2 2 2 6 4 5 3 7 8 8 8 7 8 9 8 12 13 8 8 8 13 15 15 15 15 15 15 15 15 15 15 15 15 14 14 13 12 12 11 11 11 11 11
7 7 8 7 8 8 8 7 7 7 6 6 7 6 6 6 6 6 7 5 6 7 6 6 6 5 5 5 6 6 6 5 4 5 5 4 4 5 5 6 6 4 3 3 4 5 4 6 6 4 8 8 8 7 7 8 10 10 8 8 9 8 11 15 16 15 15 16 15 16 16 16 16 16 16 15 14 14 13 13 12 12 11 11 11
7 7 7 8 7 8 7 7 7 7 8 7 7 6 6 6 6 7 6 6 6 5 5 6 6 5 5 4 4 6 5 4 6 5 5 6 5 5 5 5 5 6 5 5 7 5 5 3 6 5 3 8 8 7 7 9 11 12 9 9 9 9 14 15 15 16 16 16 16 16 16 16 16 16 15 15 15 15 14 14 13 13 12 12 12
7 7 8 8 8 8 8 8 7 8 7 7 7 7 7 7 6 6 5 6 6 7 6 6 5 5 5 6 5 6 5 5 5 5 4 4 6 5 5 4 5 5 6 4 4 5 5 6 6 6 5 6 8 8 7 8 9 11 9 9 9 12 15 13 16 16 17 17 17 17 17 17 16 16 15 15 15 15 15 15 15 14 14 13 13
8 8 8 9 9 9 9 9 8 8 8 8 7 7 7 7 7 6 6 6 7 7 6 5 5 6 6 7 7 7 6 4 5 5 5 4 4 5 5 5 5 5 5 6 7 11 4 6 5 4 5 5 5 7 8 7 7 11 9 9 10 12 10 9 14 17 17 17 17 17 17 17 17 16 16 16 15 15 16 15 15 15 15 14 14
8 8 9 10 10 10 10 9 9 9 8 8 7 7 7 7 7 7 6 7 8 7 6 7 6 6 7 7 8 7 5 5 6 6 6 5 3 4 4 5 6 5 6 6 7 10 6 4 5 5 2 3 4 6 8 7 7 7 9 9 9 9 9 9 9 14 17 17 18 18 18 18 17 17 17 17 16 16 14 16 16 15 15 14 14
9 10 10 9 9 10 10 10 10 9 9 9 8 7 8 8 8 6 7 8 8 8 6 8 8 7 7 8 8 7 6 7 6 7 7 6 5 5 5 5 6 6 6 6 7 5 12 2 4 3 4 3 4 3 7 8 8 5 8 9 8 9 9 8 8 9 15 17 18 18 18 18 17 17 17 18 18 17 16 16 16 15 15 14 14
8 9 10 10 9 9 9 9 9 9 9 9 8 8 9 9 9 8 8 8 9 9 9 10 9 7 7 8 9 8 5 6 7 7 6 6 5 6 7 5 7 7 6 7 6 7 9 10 3 4 4 3 6 6 5 6 6 6 7 8 9 8 8 9 9 8 13 16 17 18 18 18 18 17 17 18 18 17 17 16 16 15 14 13 13
9 9 9 9 9 9 10 10 10 10 10 9 9 9 10 10 10 10 9 9 9 9 10 10 9 8 9 9 10 8 6 7 8 7 7 6 6 7 7 7 7 8 6 5 7 7 6 9 6 5 3 4 5 5 4 3 5 6 7 7 5 7 8 8 9 9 11 16 17 18 18 18 18 18 18 18 17 17 17 16 16 14 13 13 13
10 9 9 8 9 9 10 11 11 11 11 11 10 10 10 9 10 10 9 9 10 10 10 10 9 9 9 10 11 8 6 8 8 8 8 8 7 7 8 7 7 7 5 5 7 6 7 10 9 3 3 4 4 4 3 5 5 5 5 7 8 8 8 8 8 9 12 15 16 17 17 17 18 18 18 18 17 17 16 16 15 14 14 13 13
10 10 10 9 9 11 11 11 11 12 11 11 11 11 11 10 9 9 9 9 10 10 10 10 9 9 9 11 10 8 7 9 11 10 8 9 7 7 8 8 8 5 6 6 6 7 7 10 9 9 4 6 5 5 5 6 7 7 7 7 6 6 7 8 9 8 7 8 7 9 12 13 16 18 18 17 17 17 16 15 15 14 14 14 14
11 11 10 10 10 10 11 11 11 11 11 10 10 10 10 10 10 10 10 10 10 10 10 10 10 9 10 10 10 8 9 10 11 11 10 8 8 9 10 10 7 5 7 7 7 8 9 9 9 9 10 6 6 9 6 5 6 7 8 7 9 9 8 10 10 8 7 9 11 14 13 12 14 13 15 17 17 16 16 15 15 15 15 15 14
12 12 11 11 11 10 10 10 11 10 9 9 10 10 10 11 11 11 11 11 11 10 10 10 9 10 10 10 10 9 11 11 12 12 9 9 7 8 9 7 7 7 8 8 7 8 9 9 10 11 8 8 5 6 2 2 4 7 8 9 12 11 9 9 10 10 8 8 9 8 11 12 12 14 15 15 16 16 17 15 16 16 16 15 15
11 12 11 11 11 11 10 10 10 9 9 10 10 11 11 12 11 12 12 11 11 10 10 10 9 10 10 10 9 10 12 15 16 14 12 10 8 9 10 8 8 8 8 7 7 7 8 9 10 8 9 8 8 7 8 8 11 15 5 7 11 11 8 7 9 9 8 8 9 9 9 9 10 10 9 8 9 13 14 16 12 16 17 16 16
12 11 11 11 11 12 12 11 10 9 10 10 13 18 15 12 11 10 10 10 11 11 10 10 10 10 10 10 10 15 15 16 16 16 17 16 16 13 12 8 9 9 9 8 8 8 9 9 11 10 10 11 10 9 11 12 10 7 7 7 9 10 4 8 9 7 8 8 10 11 11 8 9 10 8 10 9 10 8 9 10 11 15 17 16
13 12 11 12 12 12 12 12 12 11 11 11 17 16 18 19 13 10 11 11 10 10 10 10 11 10 9 10 10 12 13 13 15 18 18 18 18 19 20 18 13 11 9 10 10 10 9 10 10 9 11 13 12 11 11 11 9 11 11 8 9 7 8 9 13 8 7 12 11 11 12 8 9 11 11 11 10 8 8 10 14 17 17 18 18
12 11 12 13 12 12 11 12 12 12 12 15 17 17 18 18 16 13 10 9 9 10 10 11 10 10 10 10 9 9 9 12 12 12 14 17 19 19 20 19 18 18 17 15 12 10 10 11 11 12 11 12 14 11 10 9 12 10 9 8 10 11 11 12 12 14 6 11 12 11 12 6 7 10 10 11 9 9 11 13 16 17 18 17 18
10 11 12 12 12 12 12 12 13 13 12 16 17 18 18 18 19 16 10 10 10 10 10 11 11 11 10 10 10 9 10 14 12 11 11 12 15 20 20 19 18 19 20 22 20 15 10 11 12 14 13 13 14 14 12 12 9 10 9 10 11 12 13 13 15 13 10 10 8 8 11 10 8 9 12 11 8 8 10 13 17 17 18 18 18
12 12 12 13 12 12 12 13 12 12 13 15 17 18 18 18 18 15 12 12 11 11 11 11 11 12 12 11 10 10 10 9 10 11 11 12 12 11 11 11 13 17 20 23 21 18 16 14 14 16 16 11 16 16 13 9 10 13 12 14 13 13 14 16 18 16 4 9 11 8 8 7 6 9 11 10 7 8 9 12 17 18 18 19 19
13 13 13 13 13 12 12 13 12 12 12 16 16 18 18 18 17 14 11 11 11 11 11 11 12 12 12 11 11 12 11 10 9 11 11 12 12 12 12 12 12 13 14 15 12 13 14 14 16 19 20 16 16 18 15 12 14 15 14 16 17 16 15 10 10 11 7 8 8 7 12 6 6 8 11 8 6 9 9 12 17 19 19 19 20
11 11 11 11 12 13 13 13 12 13 14 16 16 17 18 16 15 10 10 12 13 12 12 12 12 11 11 11 11 11 12 11 13 17 16 13 12 13 13 14 13 13 14 13 15 15 16 15 16 19 19 20 20 19 18 15 14 14 13 12 11 12 10 10 14 11 11 6 8 8 7 5 1 8 8 7 7 9 9 9 14 19 20 20 20
12 13 13 12 11 11 12 12 13 14 14 14 16 16 16 16 12 10 10 11 11 12 13 13 12 12 11 11 11 11 11 11 14 16 17 15 13 14 14 14 14 13 13 7 15 21 22 24 26 27 28 28 26 25 25 25 19 16 10 11 15 13 11 13 15 10 6 3 4 9 9 8 3 7 9 7 8 11 11 11 9 16 20 20 20
14 14 12 11 11 11 12 13 14 14 14 11 15 16 17 17 16 12 10 10 12 12 12 12 11 11 12 16 14 12 12 12 15 17 17 14 13 14 14 14 16 16 12 6 7 11 21 26 28 27 27 27 28 27 26 26 24 17 12 16 19 12 13 14 14 7 5 7 12 11 7 13 9 11 13 9 8 9 11 10 11 12 17 17 20
13 12 11 11 11 10 12 13 15 15 13 12 16 16 17 18 16 10 10 10 11 11 11 12 11 10 11 12 15 15 14 15 17 16 17 13 11 12 12 12 15 17 14 8 10 9 9 9 12 13 16 20 20 18 19 25 25 22 17 18 18 16 17 15 11 8 11 13 8 14 14 15 15 14 13 6 10 9 9 10 10 9 10 10 11
Wind_Direction
232 239 219 239 247 249 253 260 261 247 232 252 220 243 247 215 225 212 175 163 150 157 158 155 144 138 121 113 102 116 130 64 108 150 163 182 210 219 191 183 181 187 195 176 177 177 181 187 193 183 181 165 161 166 163 164 164 162 167 161 156 160 143 138 102 47 347 344 342 341 332 12 357 356 355 350 357 353 7 352 345 351 345 343 346
229 233 212 240 234 231 233 237 236 243 218 231 216 209 225 224 222 211 189 171 176 191 165 203 200 174 144 146 160 176 116 103 121 159 172 188 212 244 200 191 181 187 188 188 180 180 183 186 190 193 197 188 187 189 191 185 193 192 195 196 199 202 214 207 248 302 323 325 325 317 327 343 335 333 335 335 336 338 332 334 345 327 328 336 330
210 221 230 235 235 231 241 242 246 236 217 225 196 196 206 211 207 205 206 194 205 205 172 182 190 178 181 159 166 130 116 124 141 155 168 192 206 248 239 199 195 193 189 188 188 187 189 191 192 194 199 195 202 209 215 218 216 216 223 229 226 226 240 236 251 280 286 300 305 291 302 303 315 312 320 322 321 320 326 332 332 329 330 332 330
207 220 221 225 237 229 237 236 246 239 216 226 208 184 184 202 209 199 215 213 211 206 187 179 191 188 157 145 136 148 142 154 164 161 170 185 202 221 277 235 208 199 198 195 193 197 202 199 197 197 197 206 212 217 218 225 231 237 240 244 255 273 257 249 268 282 301 305 290 287 290 293 293 301 305 309 313 317 318 322 327 328 327 327 324
216 217 222 217 229 231 232 227 229 232 211 214 218 179 151 159 180 178 197 209 206 225 184 198 200 189 142 134 146 155 151 157 157 151 169 189 202 215 249 256 240 213 207 207 206 207 210 215 209 208 204 208 216 222 226 228 224 230 238 244 237 247 254 275 275 276 274 286 286 290 291 295 295 298 302 303 309 310 319 322 332 333 329 324 322
211 222 217 219 228 223 222 229 228 223 218 195 189 177 170 159 193 202 230 210 219 205 181 217 226 160 144 144 147 164 163 166 168 174 171 189 198 196 213 233 208 218 229 214 216 216 216 220 224 224 227 225 226 228 234 235 239 238 246 245 234 237 253 254 270 267 269 274 283 283 290 297 303 301 301 301 307 311 322 324 324 321 318 318 318
212 210 202 197 210 215 229 228 223 224 220 207 165 134 159 185 170 201 245 245 226 211 203 206 198 191 189 159 162 167 181 178 167 176 184 190 181 199 195 192 203 183 196 234 234 220 220 225 234 234 238 240 245 243 240 239 241 247 252 253 246 254 232 249 251 262 271 273 274 281 283 287 290 298 302 306 309 313 318 313 312 316 315 310 308
203 198 178 196 209 206 217 217 212 205 228 231 138 174 172 168 219 192 234 252 196 227 206 207 196 198 179 184 162 170 183 179 185 186 186 175 189 191 192 189 198 197 201 185 212 256 227 235 240 248 248 248 248 250 252 251 257 272 279 308 309 296 296 264 254 267 274 276 277 278 281 284 294 293 301 307 309 307 303 305 310 312 308 308 310
187 184 176 184 195 204 209 192 191 193 205 198 182 192 161 181 208 214 190 222 169 186 197 193 194 195 170 187 175 170 178 198 198 191 163 186 189 186 196 198 204 217 197 175 182 211 252 247 252 248 252 249 250 255 258 260 261 257 255 258 267 263 273 298 291 276 270 279 282 283 286 290 292 293 300 303 304 306 308 307 304 305 308 313 314
179 174 179 186 189 184 223 184 190 190 195 190 189 163 178 161 164 187 170 142 164 168 182 183 175 174 170 180 191 183 193 190 203 196 176 201 201 202 206 198 197 214 191 189 187 189 229 269 264 264 258 258 256 257 260 256 251 257 248 244 246 241 249 263 275 279 277 277 277 280 286 294 289 289 293 297 304 312 311 309 311 308 310 316 322
175 171 173 180 182 157 202 192 181 192 183 203 178 172 161 103 111 53 63 86 141 122 123 137 143 149 164 181 183 210 176 167 211 183 204 212 205 214 190 216 208 204 204 195 190 195 215 232 270 327 281 265 259 256 255 256 258 260 262 253 251 251 254 249 253 258 273 275 292 299 308 315 315 311 298 301 305 309 306 306 312 311 320 323 328
180 177 177 167 174 189 190 177 183 180 176 204 224 181 177 167 56 84 63 65 44 56 90 108 82 80 91 55 74 347 176 219 210 223 215 224 229 203 208 203 217 222 213 204 196 200 210 231 237 232 234 284 271 261 263 259 256 262 264 265 260 257 252 261 258 253 273 280 278 285 300 310 318 301 304 311 314 317 319 326 333 332 327 341 344
181 175 187 176 172 183 183 189 184 183 185 210 215 182 154 142 91 75 93 81 57 53 71 112 114 62 46 48 23 18 315 176 286 264 237 233 224 220 217 205 219 222 231 219 215 206 209 221 241 244 248 255 294 290 276 261 260 263 272 270 273 273 259 257 248 244 260 264 264 264 295 340 333 331 325 324 342 14 19 10 12 5 17 12 34
183 182 183 180 171 173 183 190 187 195 200 226 212 180 127 109 110 57 358 122 142 165 169 98 36 139 128 68 18 356 346 59 299 273 244 230 217 222 219 226 232 233 241 236 234 217 209 205 218 232 240 244 264 287 317 285 284 276 264 269 273 268 264 258 257 258 259 261 277 82 331 360 317 319 329 21 25 9 16 12 7 16 41 61 43
187 183 182 189 183 170 184 188 198 191 172 210 210 229 164 151 155 147 82 28 88 229 216 71 143 96 89 78 13 92 313 349 291 260 240 227 220 235 223 227 238 230 228 237 241 232 218 196 204 216 222 226 240 256 270 256 229 250 254 263 269 270 267 262 257 244 255 270 266 278 312 277 285 286 49 47 28 35 35 71 62 57 65 52 47
188 186 189 192 187 181 171 184 205 192 183 187 189 217 182 148 137 139 121 106 17 276 174 174 138 130 108 152 203 108 7 274 246 274 227 226 220 238 230 232 235 235 223 237 232 225 225 202 211 213 215 211 217 224 227 221 247 247 248 241 244 255 259 253 237 237 237 243 215 212 214 239 235 237 225 208 209 128 89 76 68 67 55 50 58
187 188 188 195 197 179 169 188 197 194 184 193 192 206 192 180 162 135 144 154 209 282 309 127 188 171 136 98 40 72 214 240 156 285 261 242 242 233 228 226 235 229 224 241 240 226 219 219 222 217 214 205 205 214 213 228 241 268 260 246 238 226 241 236 225 206 217 213 208 205 210 209 211 213 219 226 224 223 196 122 84 54 52 100 80
187 189 191 190 198 187 171 179 195 186 189 199 201 184 166 175 189 168 166 181 153 129 314 350 186 241 165 157 164 172 191 236 115 261 318 239 288 267 245 234 228 238 238 246 241 234 219 229 217 225 215 199 203 204 212 214 225 239 250 251 236 222 238 223 214 210 214 217 213 215 214 217 218 224 226 220 213 214 206 204 190 152 148 160 131
190 190 190 192 197 191 174 183 190 186 189 187 195 202 192 193 180 165 196 160 126 146 172 223 19 14 279 29 105 128 145 126 198 92 292 307 265 245 261 250 236 236 242 244 243 228 233 225 222 224 218 208 208 209 208 218 223 224 235 226 233 214 216 191 209 220 219 219 217 216 218 216 219 221 219 219 216 206 205 192 195 188 175 182 154
189 190 190 192 196 200 177 179 186 187 182 190 198 206 197 186 178 202 181 166 176 159 191 197 156 231 337 35 58 70 124 101 146 165 157 178 270 312 285 246 237 241 236 240 236 232 231 231 231 225 220 219 214 211 213 218 224 227 232 224 228 219 215 202 211 221 224 222 219 218 218 217 216 217 218 220 216 205 204 200 201 210 221 215 241
194 192 190 191 196 200 187 181 188 187 188 193 202 195 197 192 180 171 187 196 186 181 153 196 163 189 134 17 45 47 50 51 130 99 135 154 271 226 244 333 259 255 244 235 236 227 225 230 229 224 218 220 214 216 212 213 222 222 225 224 224 220 215 208 211 220 222 225 223 220 222 221 220 220 217 221 215 210 207 211 212 219 230 238 243
195 196 194 195 197 196 193 189 192 191 188 192 192 194 202 198 197 193 185 196 204 175 190 181 188 188 181 150 126 83 64 72 88 95 49 110 177 211 207 196 225 253 226 232 229 228 218 225 231 229 226 228 214 215 213 214 216 219 231 225 222 219 216 210 212 219 222 223 224 221 223 225 225 223 221 221 219 215 215 214 221 225 233 240 244
187 195 197 197 200 197 196 196 188 194 192 187 193 194 198 194 196 194 193 189 190 199 217 192 170 182 178 162 181 174 179 181 193 189 152 159 92 236 232 209 215 247 253 220 222 222 214 210 223 228 222 227 224 209 216 221 218 220 221 228 229 222 220 217 215 219 221 223 222 222 222 224 225 224 221 222 220 219 219 219 225 228 234 238 242
186 192 201 200 200 203 202 195 189 192 198 192 194 192 193 184 175 186 203 206 188 185 189 186 187 198 200 190 204 202 194 176 192 172 171 195 167 188 198 213 289 249 282 284 243 224 219 217 221 221 222 222 222 213 215 220 227 225 221 225 228 228 225 224 221 221 224 225 225 227 225 225 226 227 226 226 226 225 227 227 228 232 237 241 246
194 197 204 198 196 201 204 201 196 194 195 190 196 188 182 182 181 185 192 194 194 188 183 199 187 183 207 210 202 200 222 240 155 176 164 140 163 167 239 164 193 248 255 167 233 223 215 228 218 220 219 220 221 213 214 217 227 229 221 223 224 226 225 227 225 222 223 225 226 228 231 230 228 227 230 231 232 233 233 235 237 239 244 248 248
192 202 199 194 199 202 201 207 200 190 193 192 192 189 179 182 183 186 193 199 184 192 198 196 191 202 183 187 213 206 226 204 190 157 162 142 164 190 194 232 182 250 305 252 275 195 263 227 223 219 219 222 221 213 213 218 225 234 226 220 226 226 225 225 226 225 223 224 225 227 229 232 232 230 230 233 235 236 239 241 242 245 246 247 250
198 199 188 194 199 199 202 203 204 196 192 193 192 189 186 182 185 193 194 184 188 187 201 187 199 207 198 198 205 209 220 204 171 203 178 190 172 178 160 212 290 341 292 270 287 226 233 253 215 215 218 221 221 215 214 217 223 225 228 224 226 228 227 226 225 226 225 225 225 226 228 230 233 233 232 232 233 236 239 242 246 249 251 256 260
199 186 194 192 196 200 200 205 201 199 196 196 192 189 187 185 189 187 200 184 184 190 200 192 207 205 204 204 187 216 214 205 197 198 196 196 193 163 163 166 200 275 332 306 270 261 230 237 267 223 215 217 223 220 217 218 225 225 226 225 226 231 230 227 227 227 228 228 228 228 229 229 230 232 234 233 233 232 236 239 242 247 251 255 260
197 193 191 196 198 197 200 203 201 202 199 199 196 194 187 189 189 191 202 192 190 199 190 194 210 199 205 205 205 212 218 209 211 206 206 202 208 194 183 181 171 196 268 284 262 240 276 204 229 250 207 214 220 219 221 220 224 218 220 223 225 226 230 228 227 228 229 231 231 231 231 232 232 233 234 235 236 235 235 236 239 244 248 252 257
194 195 191 195 199 200 202 204 203 200 204 200 197 195 188 196 197 196 199 187 200 204 199 197 204 196 207 212 216 229 229 206 217 213 201 204 205 205 208 206 172 195 200 234 271 214 250 262 214 246 211 214 215 221 214 225 224 217 218 221 225 226 227 226 227 227 229 231 233 233 233 235 235 235 235 236 237 238 238 239 240 242 246 251 255
190 192 192 196 198 203 203 207 202 205 204 204 197 195 191 198 199 202 193 189 200 210 210 196 205 190 204 217 217 231 231 228 230 226 221 200 208 196 205 188 199 198 193 187 257 275 196 234 245 235 223 219 214 219 222 227 227 216 221 223 226 229 227 228 228 228 229 230 232 233 234 235 237 238 238 238 238 237 238 239 241 243 245 247 249
193 191 193 196 199 202 206 206 206 206 205 208 199 197 193 201 198 200 198 188 201 212 216 209 203 196 206 217 220 223 226 232 242 239 235 227 205 198 197 195 204 204 187 194 220 261 196 214 242 261 232 227 216 219 229 233 229 218 225 225 228 231 231 232 232 230 230 230 232 233 234 235 236 238 240 241 239 239 239 239 239 241 243 244 247
189 192 196 200 201 204 204 206 208 207 206 206 202 198 198 205 203 203 194 194 203 214 209 217 215 206 211 220 226 228 213 220 232 237 238 236 221 219 203 193 214 200 188 203 224 263 277 219 228 237 253 206 246 213 229 232 233 228 225 229 227 226 228 229 232 232 230 231 232 234 235 235 236 237 239 241 241 240 238 237 239 239 240 242 244
188 197 201 202 204 204 205 207 208 210 209 208 203 197 204 207 211 201 198 198 208 214 203 217 214 216 213 222 233 232 216 223 229 233 232 235 226 227 222 206 220 218 200 197 232 234 269 268 264 261 269 184 247 194 212 226 236 224 227 230 227 223 228 230 231 237 232 230 231 233 235 236 236 237 237 239 240 240 240 240 240 237 237 238 240
195 200 203 204 204 203 206 208 208 210 211 211 207 203 208 208 211 210 205 202 207 212 212 218 215 210 216 223 233 229 218 227 235 237 230 232 225 225 233 215 225 225 207 206 211 244 255 269 209 248 242 229 214 245 227 232 235 215 226 231 228 227 227 227 230 236 235 231 231 232 233 235 236 237 237 238 238 238 238 238 238 236 234 234 235
200 205 205 206 205 204 206 208 208 210 211 213 211 210 212 210 212 214 211 209 213 216 218 221 218 209 217 224 233 226 216 225 237 237 234 229 225 225 230 230 225 233 218 204 219 230 248 260 262 222 245 231 258 253 252 243 237 232 223 237 236 236 232 229 230 234 236 233 232 231 232 233 234 235 236 237 236 234 233 234 235 234 231 230 231
206 203 207 205 206 205 208 207 208 210 211 210 211 213 216 215 215 216 216 215 217 220 222 223 218 215 220 223 232 222 212 225 239 238 234 230 229 222 231 233 228 233 227 217 227 226 248 255 269 237 239 247 248 260 233 245 257 249 244 233 229 230 234 232 230 235 239 239 236 234 233 233 233 233 234 235 235 232 230 230 231 230 227 226 227
206 206 205 204 205 209 211 211 209 211 211 210 212 214 215 216 217 219 220 220 222 222 224 224 222 218 221 226 231 221 215 221 234 236 234 235 232 231 234 236 233 227 229 235 231 236 237 254 260 277 233 238 266 245 225 208 233 254 256 247 246 235 230 239 232 231 226 227 229 232 232 234 235 234 233 233 233 232 230 228 227 225 223 222 220
205 209 207 206 207 209 213 213 214 213 212 211 213 215 217 216 217 219 221 223 225 226 227 225 223 221 224 227 229 221 221 226 233 235 233 233 230 234 233 237 233 218 228 231 228 233 239 250 258 251 264 248 218 259 242 209 226 225 240 255 254 234 224 227 240 230 226 232 232 226 223 218 220 223 225 228 231 232 231 227 225 221 218 217 215
208 208 210 209 211 211 213 214 217 214 213 213 215 216 216 215 216 220 221 222 225 227 230 229 226 226 226 228 228 223 223 228 230 236 228 234 228 238 239 235 234 223 229 232 230 234 242 247 247 257 250 261 257 249 284 195 247 258 226 225 245 246 230 230 231 233 227 224 234 233 230 228 232 231 229 228 228 231 233 230 225 220 215 214 210
208 210 210 211 213 216 218 216 217 213 214 216 216 215 215 217 215 220 221 224 226 228 230 231 229 229 231 231 231 229 226 231 232 235 233 226 224 233 240 224 232 228 234 232 233 234 245 249 259 254 258 257 251 258 253 230 228 240 230 192 244 250 244 247 246 229 227 222 234 235 231 215 222 225 220 221 223 223 232 225 223 216 213 210 208
209 208 209 211 213 215 218 219 217 216 218 220 220 216 214 214 214 219 221 224 226 229 230 231 233 230 232 231 234 232 230 232 234 235 236 233 228 229 239 221 224 227 231 235 234 234 239 248 250 254 258 254 250 240 247 246 245 262 259 225 237 254 258 257 266 237 210 211 231 235 235 215 214 228 218 224 224 212 221 209 214 207 208 206 206
210 208 207 211 214 216 216 217 217 217 222 224 222 214 215 216 213 215 218 223 224 228 231 231 232 232 232 232 237 236 232 233 235 235 235 234 233 234 239 238 227 219 230 233 236 232 235 241 248 251 251 259 255 245 242 253 246 237 242 237 241 251 238 243 257 257 181 198 221 234 242 213 199 221 223 225 220 210 213 216 210 207 205 201 203
211 209 211 213 215 217 218 218 219 218 222 225 220 216 214 214 213 217 218 222 223 225 229 232 236 234 234 233 233 234 233 231 233 238 238 238 238 238 239 240 239 235 230 228 235 237 231 242 247 243 248 251 257 252 249 244 249 245 239 234 233 232 236 235 242 248 217 180 209 221 242 218 192 217 229 228 217 210 214 213 208 206 205 202 201
209 211 215 213 216 217 219 220 223 222 226 223 217 216 214 212 213 215 224 221 222 227 227 230 235 235 235 236 238 235 238 234 234 237 239 242 236 237 240 242 243 240 242 241 236 237 239 241 246 253 238 248 256 253 239 243 242 249 238 234 234 232 231 235 241 246 234 181 192 218 236 228 177 209 230 232 212 211 219 214 209 205 203 203 201
212 215 213 216 217 216 218 221 225 227 228 226 214 215 214 212 211 207 226 226 227 229 228 229 232 235 234 234 237 241 239 235 232 233 238 241 246 242 238 235 238 242 241 242 241 243 248 248 251 255 251 225 247 253 247 231 232 239 238 241 235 236 233 231 236 240 228 145 190 201 239 229 176 212 231 236 208 217 219 211 206 207 205 203 201
212 213 212 214 217 217 220 222 226 229 233 227 215 212 213 210 208 201 223 229 233 234 232 231 232 234 234 232 235 240 241 235 233 232 234 238 241 245 247 243 236 237 238 239 231 228 234 238 246 251 257 248 245 252 252 236 231 237 234 238 238 237 242 248 264 254 233 191 181 174 239 222 171 217 235 229 210 221 217 216 207 206 206 203 201
214 215 216 215 216 217 218 221 225 232 234 223 215 214 209 207 194 199 218 227 232 237 238 235 235 236 236 234 234 239 242 240 236 228 229 235 240 245 247 249 249 245 241 231 228 227 229 232 237 244 250 250 246 247 248 244 243 244 248 252 260 255 253 247 245 242 235 193 182 194 251 270 135 227 243 227 209 222 220 221 209 204 206 204 201
212 213 215 213 215 215 218 220 224 233 238 221 212 212 207 193 181 207 213 224 232 236 241 240 239 239 238 235 233 239 241 241 239 232 230 226 242 245 249 253 253 253 253 225 213 222 229 233 237 240 245 251 253 252 254 252 249 251 260 263 254 246 240 250 252 252 280 64 202 204 218 248 180 207 246 238 211 219 216 215 208 205 204 203 200
212 213 213 216 214 213 215 220 221 230 237 220 206 209 201 186 188 200 210 215 228 232 240 244 243 244 242 238 236 237 239 243 238 232 230 221 237 244 250 258 263 263 263 238 232 226 226 231 234 238 243 249 252 254 256 258 257 254 244 248 255 256 247 238 247 236 240 189 211 179 193 225 197 200 214 210 204 219 216 212 204 200 199 202 201
214 212 210 214 214 213 215 219 220 225 235 225 210 206 197 189 192 206 206 213 224 231 233 241 242 243 246 244 239 238 240 243 240 234 229 219 238 248 250 258 266 269 268 251 247 248 242 243 257 255 260 256 258 257 257 257 255 251 244 246 257 257 257 250 239 235 243 237 184 164 199 221 212 213 201 199 229 226 210 203 195 193 191 192 196